75000 - Paris

Modèle gfs - 04/05/2026 12:00
Altitude : 28 - 131m

05/05/2026 à 11:58 (UTC)

Date (UTC!) Model Picto Température Min Max T850 T950 Humidité Précipitation Neige (proba) Pression Nuages Bas Nuages Moyen Nuages Haut Nuages Total Nuages Corrigés CAPE Iso Vent (dir) Vent (vitesse) Rafales (vitesse)
04/05 - 12:00 gfs 17,19 0,00 0,00 5,87 12,13 71,66 0,00 (1h) 0,00 10,12 64,01 100,00 96,46 100,00 100,00 138,65 2423,95 118,00 6,07 7,45
04/05 - 13:00 gfs 17,00 16,80 17,37 5,92 12,00 74,63 0,65 (1h) 0,00 10,12 58,20 100,00 84,87 100,00 100,00 166,92 2405,45 137,12 5,68 6,85
04/05 - 14:00 gfs 17,24 16,64 17,67 5,99 12,18 73,11 0,67 (1h) 0,00 10,12 72,32 100,00 100,00 100,00 100,00 165,40 2414,16 154,18 4,42 5,09
04/05 - 15:00 gfs 16,64 16,27 17,71 5,88 12,17 76,34 0,80 (1h) 0,00 10,11 99,83 100,00 98,59 100,00 100,00 153,45 2425,65 190,00 4,24 4,96
04/05 - 16:00 gfs 15,33 15,34 17,71 5,65 11,68 85,66 1,10 (1h) 0,00 10,11 100,00 100,00 28,73 100,00 100,00 146,60 2422,23 218,54 7,08 9,35
04/05 - 17:00 gfs 14,30 14,29 17,71 5,66 11,32 91,56 1,23 (1h) 0,00 10,11 100,00 93,40 0,00 100,00 100,00 89,85 2422,35 241,48 8,01 12,70
04/05 - 18:00 gfs 13,87 13,88 17,71 5,66 11,17 92,76 0,76 (1h) 0,00 10,11 100,00 70,10 0,00 100,00 100,00 52,35 2431,76 264,57 8,22 13,40
04/05 - 19:00 gfs 13,56 13,58 13,85 5,70 11,15 93,65 0,28 (1h) 0,00 10,12 98,82 57,44 0,12 98,82 98,82 35,05 2430,06 285,21 7,55 13,60
04/05 - 20:00 gfs 13,51 13,47 13,87 5,61 11,15 93,83 0,10 (1h) 0,00 10,12 97,82 28,84 23,26 97,82 97,82 36,98 2439,60 282,08 5,75 10,76
04/05 - 21:00 gfs 13,39 13,40 13,88 5,51 10,90 94,13 0,12 (1h) 0,00 10,12 98,82 57,29 67,94 99,96 98,82 39,50 2403,19 272,36 4,01 8,04
04/05 - 22:00 gfs 13,36 13,34 13,86 5,70 10,78 94,35 0,06 (1h) 0,00 10,11 98,97 41,23 80,08 98,97 98,97 43,98 2407,95 254,85 3,48 5,38
04/05 - 23:00 gfs 13,28 13,28 13,90 5,85 10,70 94,90 0,01 (1h) 0,00 10,11 94,00 5,40 99,92 100,00 94,00 47,02 2373,61 237,03 3,16 4,76
05/05 - 00:00 gfs 13,19 13,14 13,86 5,92 10,80 95,57 0,10 (1h) 0,00 10,10 96,05 30,03 98,53 99,46 96,05 32,76 2371,46 286,64 0,92 2,70
05/05 - 01:00 gfs 13,11 13,07 13,18 5,65 10,63 96,02 0,05 (1h) 0,00 10,10 97,33 36,86 36,75 97,95 97,33 43,52 2356,92 106,09 2,34 4,33
05/05 - 02:00 gfs 12,94 12,93 13,18 5,36 10,40 96,34 0,13 (1h) 0,00 10,10 99,19 1,98 22,77 99,77 99,19 53,29 2316,70 126,24 4,08 8,55
05/05 - 03:00 gfs 12,81 12,83 13,18 5,43 10,34 96,29 0,18 (1h) 0,00 10,10 96,89 1,72 100,00 100,00 96,89 45,78 2301,20 91,89 3,94 7,49
05/05 - 04:00 gfs 12,59 12,58 13,23 5,46 10,25 96,23 0,14 (1h) 0,00 10,09 93,28 1,40 99,85 99,85 93,28 37,01 2278,90 90,08 4,74 9,37
05/05 - 05:00 gfs 12,49 12,46 13,20 5,41 10,06 95,74 0,04 (1h) 0,00 10,09 48,01 3,16 100,00 100,00 50,00 26,06 2285,39 82,20 5,30 10,67
05/05 - 06:00 gfs 12,72 12,40 13,20 5,15 9,95 92,77 0,04 (1h) 0,00 10,09 53,90 7,35 100,00 100,00 53,90 17,94 2277,35 77,85 6,62 11,36
05/05 - 07:00 gfs 13,48 12,80 13,46 4,92 9,81 88,58 0,04 (1h) 0,00 10,09 80,92 68,70 100,00 100,00 80,92 29,58 2252,44 73,15 8,51 13,19
05/05 - 08:00 gfs 14,04 12,80 14,08 4,94 9,91 85,83 0,08 (1h) 0,00 10,09 95,90 87,16 100,00 100,00 95,90 62,20 2226,79 74,14 9,21 14,08
05/05 - 09:00 gfs 14,18 12,80 14,27 4,85 10,19 85,74 0,22 (1h) 0,00 10,09 93,04 99,76 100,00 100,00 99,76 83,25 2227,93 66,97 9,55 15,14
05/05 - 10:00 gfs 14,39 12,80 14,68 5,03 10,49 86,17 0,48 (1h) 0,00 10,08 97,16 99,21 100,00 100,00 99,21 118,43 2251,61 59,58 10,37 16,55
05/05 - 11:00 gfs 13,80 12,80 14,76 5,22 10,27 90,72 0,93 (1h) 0,00 10,08 100,00 100,00 100,00 100,00 100,00 99,27 2259,92 59,36 10,93 20,14
05/05 - 12:00 gfs 13,21 12,80 14,76 5,00 10,04 93,84 1,75 (1h) 0,00 10,08 100,00 100,00 97,78 100,00 100,00 79,44 2247,05 73,90 9,41 20,27
05/05 - 13:00 gfs 13,08 13,08 13,29 4,86 9,82 93,66 1,47 (1h) 0,00 10,08 100,00 100,00 97,61 100,00 100,00 72,02 2213,89 100,23 7,75 15,38
05/05 - 14:00 gfs 12,91 12,85 13,35 4,42 9,83 94,44 1,82 (1h) 0,00 10,08 100,00 100,00 100,00 100,00 100,00 76,75 2202,44 120,36 6,87 12,33
05/05 - 15:00 gfs 12,68 12,64 13,35 4,26 9,94 94,82 2,29 (1h) 0,00 10,07 100,00 100,00 96,87 100,00 100,00 76,39 2141,02 149,27 4,00 8,62
05/05 - 16:00 gfs 12,58 12,52 13,33 4,21 9,73 94,30 1,91 (1h) 0,00 10,07 100,00 100,00 100,00 100,00 100,00 73,40 2097,65 151,70 2,50 5,77
05/05 - 17:00 gfs 12,34 12,34 13,35 4,12 9,61 94,83 1,65 (1h) 0,00 10,07 100,00 100,00 94,96 100,00 100,00 55,02 2161,42 133,45 2,19 5,05
05/05 - 18:00 gfs 12,19 12,18 13,32 4,09 9,49 95,75 1,56 (1h) 0,00 10,07 100,00 100,00 98,34 100,00 100,00 52,14 2132,08 173,99 1,32 6,61
05/05 - 19:00 gfs 11,99 12,01 12,16 3,97 9,46 96,76 2,01 (1h) 0,00 10,07 100,00 100,00 100,00 100,00 100,00 55,34 2052,04 278,78 1,92 8,55
05/05 - 20:00 gfs 11,91 11,86 12,15 3,87 9,59 96,81 2,40 (1h) 0,00 10,08 100,00 100,00 100,00 100,00 100,00 46,91 2093,84 267,58 2,53 8,92
05/05 - 21:00 gfs 11,83 11,75 12,17 3,91 9,42 96,95 1,66 (1h) 0,00 10,08 100,00 100,00 100,00 100,00 100,00 47,33 2057,61 251,02 3,89 7,52
05/05 - 22:00 gfs 11,71 11,69 12,17 3,72 9,31 96,94 1,25 (1h) 0,00 10,08 100,00 100,00 95,34 100,00 100,00 44,01 2058,65 236,42 3,90 8,74
05/05 - 23:00 gfs 11,63 11,57 12,15 3,62 9,28 97,18 1,07 (1h) 0,00 10,08 100,00 100,00 93,56 100,00 100,00 43,23 2030,79 213,91 4,30 9,85
06/05 - 00:00 gfs 11,62 11,52 12,16 3,75 9,17 96,94 1,13 (1h) 0,00 10,07 100,00 99,98 92,50 100,00 100,00 38,10 2036,07 207,49 1,49 10,31
06/05 - 01:00 gfs 11,35 11,39 11,60 3,78 8,95 96,99 0,69 (1h) 0,00 10,07 99,13 100,00 100,00 100,00 100,00 26,97 2061,94 21,61 3,28 10,69
06/05 - 02:00 gfs 11,09 11,06 11,63 3,83 8,67 96,92 0,35 (1h) 0,00 10,07 99,43 100,00 100,00 100,00 100,00 20,77 2018,13 31,76 5,31 15,27
06/05 - 03:00 gfs 10,81 10,82 11,63 3,75 8,27 96,51 0,34 (1h) 0,00 10,07 100,00 100,00 100,00 100,00 100,00 12,14 2010,83 29,81 5,78 17,70
06/05 - 04:00 gfs 10,45 10,44 11,60 3,55 7,68 96,52 1,02 (1h) 0,00 10,07 99,73 100,00 100,00 100,00 100,00 11,85 2004,78 15,76 7,31 19,33
06/05 - 05:00 gfs 10,13 10,09 11,60 3,28 7,19 96,25 1,20 (1h) 0,00 10,07 100,00 100,00 100,00 100,00 100,00 10,75 1966,12 16,28 9,65 23,33
06/05 - 06:00 gfs 9,96 9,85 11,61 2,82 6,93 96,11 1,06 (1h) 0,00 10,08 100,00 100,00 100,00 100,00 100,00 11,97 1933,31 15,18 10,18 25,92
06/05 - 07:00 gfs 9,80 9,73 10,07 2,35 6,86 95,77 0,67 (1h) 0,00 10,08 100,00 100,00 100,00 100,00 100,00 12,74 1892,58 7,22 11,08 27,19
06/05 - 08:00 gfs 9,71 9,57 10,09 1,98 6,65 94,88 0,24 (1h) 0,00 10,09 100,00 100,00 99,75 100,00 100,00 13,47 1921,59 7,04 10,90 26,73
06/05 - 09:00 gfs 9,53 9,46 10,11 1,90 6,08 93,84 0,22 (1h) 0,00 10,09 100,00 100,00 65,79 100,00 100,00 13,47 1817,45 4,00 10,85 22,99
06/05 - 10:00 gfs 9,34 9,29 10,12 1,93 5,74 92,99 0,24 (1h) 0,00 10,09 100,00 100,00 50,54 100,00 100,00 12,08 1808,27 356,89 10,77 18,51
06/05 - 11:00 gfs 9,12 9,13 10,12 1,97 5,48 92,77 0,13 (1h) 0,00 10,10 100,00 100,00 26,45 100,00 100,00 10,66 1918,44 348,36 10,87 16,96
06/05 - 12:00 gfs 9,12 9,04 10,11 2,04 5,31 91,51 0,05 (1h) 0,00 10,10 100,00 98,64 71,20 100,00 100,00 10,69 1924,41 350,60 10,86 15,62
06/05 - 13:00 gfs 9,23 9,06 9,23 1,96 5,36 90,56 0,08 (1h) 0,00 10,10 100,00 97,28 99,13 100,00 100,00 11,45 1892,44 347,93 9,72 14,67
06/05 - 14:00 gfs 9,27 9,00 9,34 1,96 5,53 90,70 0,08 (1h) 0,00 10,10 100,00 97,95 99,81 100,00 100,00 10,82 1872,91 338,51 9,33 15,54
06/05 - 15:00 gfs 9,37 9,01 9,41 1,88 5,80 91,51 0,15 (1h) 0,00 10,10 100,00 79,11 99,46 100,00 100,00 11,59 1867,82 337,51 10,05 18,76
06/05 - 16:00 gfs 9,50 8,99 9,51 1,56 5,96 92,19 0,12 (1h) 0,00 10,10 100,00 72,50 83,20 100,00 100,00 14,25 1838,48 341,44 10,20 21,26
06/05 - 17:00 gfs 9,37 9,04 9,55 1,38 5,91 92,82 0,08 (1h) 0,00 10,10 100,00 76,74 90,63 100,00 100,00 15,48 1766,55 351,25 10,24 22,76
06/05 - 18:00 gfs 9,03 8,98 9,55 1,41 5,76 93,07 0,04 (1h) 0,00 10,11 100,00 59,36 95,72 100,00 100,00 10,55 1733,63 355,73 11,00 23,94
06/05 - 19:00 gfs 8,76 8,75 9,05 1,22 5,64 92,83 0,02 (1h) 0,00 10,11 100,00 73,12 98,29 100,00 100,00 6,06 1694,62 0,66 11,38 26,54
06/05 - 20:00 gfs 8,57 8,57 9,04 1,17 5,51 91,79 0,00 (1h) 0,00 10,12 93,89 97,24 97,60 100,00 97,24 2,49 1689,69 358,87 10,97 27,20
06/05 - 21:00 gfs 8,31 8,32 9,04 1,06 5,28 91,75 0,04 (1h) 0,00 10,12 87,95 99,39 93,47 100,00 99,39 3,07 1659,48 355,63 10,43 24,95
06/05 - 22:00 gfs 8,03 8,06 9,08 0,79 5,08 92,07 0,03 (1h) 0,00 10,12 78,28 96,06 37,59 100,00 96,06 3,43 1608,14 354,92 9,60 24,45
06/05 - 23:00 gfs 7,92 7,89 9,06 0,70 4,93 92,15 0,01 (1h) 0,00 10,13 89,84 97,30 42,46 98,55 97,30 2,65 1590,19 353,71 9,07 22,91
07/05 - 00:00 gfs 7,86 7,75 9,06 0,72 4,76 91,77 0,02 (1h) 0,00 10,13 89,23 98,86 20,07 99,82 98,86 2,44 1593,75 351,97 8,91 21,46
07/05 - 01:00 gfs 7,81 7,79 7,86 0,70 4,48 91,41 0,01 (1h) 0,00 10,13 87,12 87,77 16,33 90,08 87,77 3,29 1582,75 347,86 8,98 22,42
07/05 - 02:00 gfs 7,67 7,65 7,87 0,58 4,39 90,88 0,03 (1h) 0,00 10,13 79,44 94,13 5,37 98,63 94,13 2,65 1549,78 344,40 8,94 23,19
07/05 - 03:00 gfs 7,55 7,52 7,88 0,50 4,38 90,39 0,00 (1h) 0,00 10,13 60,96 40,13 13,96 64,61 60,96 1,34 1534,94 346,23 9,07 23,40
07/05 - 04:00 gfs 7,27 7,25 7,86 0,37 4,40 91,14 0,00 (1h) 0,00 10,13 48,54 7,12 6,05 48,54 48,54 0,77 1516,57 339,75 8,14 20,93
07/05 - 05:00 gfs 7,21 7,08 7,86 0,09 4,39 91,05 0,00 (1h) 0,00 10,13 43,06 4,32 2,14 43,06 43,06 0,77 1455,86 339,00 7,85 22,12
07/05 - 06:00 gfs 8,01 7,06 7,99 -0,15 4,47 86,47 0,00 (1h) 0,00 10,14 46,89 1,87 2,13 46,89 46,89 0,98 1408,97 355,31 9,25 21,51
07/05 - 07:00 gfs 9,12 8,07 9,12 -0,23 4,49 80,32 0,00 (1h) 0,00 10,14 50,26 0,00 4,93 50,26 50,26 2,57 1401,99 8,64 10,28 18,99
07/05 - 08:00 gfs 10,52 8,07 10,53 -0,44 5,23 72,94 0,00 (1h) 0,00 10,14 60,90 0,00 4,93 60,90 60,90 16,85 1376,60 9,35 10,63 16,60
07/05 - 09:00 gfs 11,59 8,06 11,61 -0,66 6,06 66,98 0,04 (1h) 0,00 10,15 84,40 0,00 5,31 84,40 84,40 28,49 1333,06 9,02 10,51 13,62
07/05 - 10:00 gfs 12,09 8,08 12,07 -0,70 6,63 64,30 0,06 (1h) 0,00 10,15 96,58 0,00 4,98 96,58 96,58 31,69 1351,50 8,70 10,21 11,67
07/05 - 11:00 gfs 12,30 8,08 12,41 -0,38 7,03 62,61 0,06 (1h) 0,00 10,15 93,69 0,00 4,52 93,69 93,69 26,80 1386,41 10,91 10,01 10,50
07/05 - 12:00 gfs 12,76 8,06 12,85 -0,27 7,47 59,82 0,06 (1h) 0,00 10,15 93,42 0,00 0,37 93,42 93,42 24,68 1412,95 12,68 8,58 9,10
07/05 - 13:00 gfs 13,11 12,65 13,18 -0,01 7,93 56,59 0,04 (1h) 0,00 10,15 99,65 0,00 0,00 99,65 99,65 16,19 1448,98 10,09 6,66 7,97
07/05 - 14:00 gfs 13,15 12,55 13,41 0,19 8,20 55,33 0,01 (1h) 0,00 10,14 99,41 0,00 0,07 99,41 99,41 8,36 1480,06 7,59 5,68 7,35
07/05 - 15:00 gfs 0,00 0,00 0,00 0,00 0,00 0,00 0,00 (1h) 0,00 10,15 0,00 0,00 0,00 0,00 0,00 0,00 0,00 0,00 0,00 6,29
07/05 - 16:00 gfs 13,31 12,60 13,63 0,54 8,45 55,59 0,00 (1h) 0,00 10,15 87,35 0,00 5,00 87,35 87,35 10,72 1519,64 37,49 5,89 6,04
07/05 - 17:00 gfs 13,28 12,60 13,68 0,73 8,53 56,61 0,00 (1h) 0,00 10,14 55,38 0,00 8,08 55,60 55,38 10,48 1536,98 50,72 7,16 6,80
07/05 - 18:00 gfs 12,84 12,50 13,68 1,03 8,48 60,12 0,00 (1h) 0,00 10,14 32,51 0,00 5,00 32,51 32,51 9,20 1572,38 60,86 7,27 8,45
07/05 - 19:00 gfs 11,21 11,21 12,72 1,21 8,41 68,94 0,00 (1h) 0,00 10,15 15,43 0,48 5,77 16,20 15,43 4,78 1592,60 69,35 6,93 11,57
07/05 - 20:00 gfs 10,13 10,13 12,72 1,19 8,28 75,02 0,00 (1h) 0,00 10,15 5,00 7,09 38,31 38,31 19,16 0,42 1599,95 75,17 6,79 13,30
07/05 - 21:00 gfs 9,46 9,46 12,72 1,19 8,13 78,68 0,00 (1h) 0,00 10,16 5,00 36,25 73,17 73,17 36,59 0,00 1612,97 88,74 6,11 13,16
07/05 - 22:00 gfs 9,04 8,99 12,72 1,23 7,99 80,67 0,00 (1h) 0,00 10,16 5,00 3,97 15,29 15,30 7,65 0,00 1660,63 99,07 5,36 10,26
07/05 - 23:00 gfs 8,52 8,50 12,72 1,26 7,74 82,51 0,00 (1h) 0,00 10,16 5,00 0,00 5,00 5,00 5,00 0,00 1870,71 102,96 4,68 7,06
08/05 - 00:00 gfs 8,17 8,12 12,72 1,30 7,51 83,72 0,00 (1h) 0,00 10,16 3,95 0,00 5,00 5,00 3,95 0,00 2066,45 105,87 4,19 5,25
08/05 - 01:00 gfs 7,84 7,83 8,13 1,46 7,38 84,49 0,00 (1h) 0,00 10,16 3,95 0,00 0,06 3,95 3,95 0,00 2220,33 90,17 3,98 4,01
08/05 - 02:00 gfs 7,55 7,54 8,14 1,88 7,34 85,04 0,00 (1h) 0,00 10,16 1,61 0,00 0,00 1,61 1,61 0,00 2363,50 79,34 4,53 4,80
08/05 - 03:00 gfs 7,23 7,21 8,15 2,21 7,30 85,33 0,00 (1h) 0,00 10,16 0,17 0,00 0,00 0,17 0,17 0,00 2341,27 80,56 5,11 6,64
08/05 - 04:00 gfs 6,97 6,98 8,17 2,64 7,27 85,31 0,00 (1h) 0,00 10,16 0,00 0,00 0,07 0,07 0,04 0,00 2317,68 83,37 5,93 9,31
08/05 - 05:00 gfs 7,07 6,86 8,17 3,04 7,22 84,06 0,00 (1h) 0,00 10,15 0,00 0,00 4,31 4,31 2,16 0,00 2320,74 87,78 5,28 11,55
08/05 - 06:00 gfs 8,61 6,84 8,64 3,11 7,19 76,05 0,00 (1h) 0,00 10,16 0,00 0,00 4,77 4,77 2,38 0,00 2293,98 97,04 5,89 10,63
08/05 - 07:00 gfs 10,49 8,75 10,52 3,87 7,27 67,78 0,00 (1h) 0,00 10,16 0,00 0,00 8,12 8,12 4,06 0,00 2381,01 82,46 9,37 16,10
08/05 - 08:00 gfs 12,39 8,75 12,41 3,91 7,03 59,32 0,00 (1h) 0,00 10,16 0,00 3,42 20,11 20,11 10,06 0,00 2381,29 92,09 10,50 16,09
08/05 - 09:00 gfs 13,87 8,75 13,89 4,33 8,01 52,52 0,00 (1h) 0,00 10,15 0,00 1,37 23,63 23,63 11,81 0,00 2399,84 93,36 11,39 14,05
08/05 - 10:00 gfs 15,23 8,75 15,19 4,88 9,07 48,38 0,00 (1h) 0,00 10,15 0,00 45,70 76,10 76,10 45,70 0,00 2417,43 94,26 11,48 12,91
08/05 - 11:00 gfs 16,12 8,75 16,14 5,74 10,08 46,06 0,00 (1h) 0,00 10,15 0,00 99,97 100,00 100,00 99,97 0,00 2486,38 89,45 11,48 12,92
08/05 - 12:00 gfs 17,04 8,74 17,07 6,25 11,04 44,41 0,00 (1h) 0,00 10,14 0,00 100,00 100,00 100,00 100,00 0,00 2518,05 91,43 11,45 12,67
08/05 - 13:00 gfs 17,42 16,95 17,44 6,52 11,70 44,58 0,00 (1h) 0,00 10,14 0,00 100,00 100,00 100,00 100,00 0,00 2547,80 95,42 11,59 12,71
08/05 - 14:00 gfs 17,74 16,93 17,77 6,93 12,20 45,50 0,00 (1h) 0,00 10,13 0,00 100,00 100,00 100,00 100,00 0,00 2600,35 94,41 12,24 13,73
08/05 - 15:00 gfs 17,67 16,95 17,77 7,09 12,48 47,84 0,00 (1h) 0,00 10,13 0,00 100,00 100,00 100,00 100,00 0,00 2622,36 100,62 11,92 14,02
08/05 - 16:00 gfs 17,56 16,95 17,77 7,26 12,64 50,75 0,00 (1h) 0,00 10,13 0,00 100,00 100,00 100,00 100,00 0,00 2598,17 106,47 11,17 13,50
08/05 - 17:00 gfs 16,97 16,91 17,78 8,10 12,56 56,30 0,00 (1h) 0,00 10,12 0,00 100,00 100,00 100,00 100,00 0,00 2609,02 92,93 10,85 15,18
08/05 - 18:00 gfs 16,04 16,03 17,78 8,34 12,43 62,62 0,00 (1h) 0,00 10,13 2,38 100,00 92,17 100,00 100,00 0,74 2585,18 83,19 8,52 16,88
08/05 - 19:00 gfs 15,01 15,03 15,99 9,08 12,64 67,65 0,00 (1h) 0,00 10,12 22,35 100,00 100,00 100,00 100,00 0,00 2614,16 69,59 10,13 22,71
08/05 - 20:00 gfs 14,32 14,34 15,99 8,89 13,00 71,64 0,04 (1h) 0,00 10,13 10,16 99,15 99,89 100,00 99,15 0,00 2586,30 77,50 8,36 23,50
08/05 - 21:00 gfs 13,51 13,51 15,98 8,78 13,29 76,51 0,02 (1h) 0,00 10,13 69,24 100,00 100,00 100,00 100,00 0,00 2553,46 82,12 9,44 26,28
08/05 - 22:00 gfs 13,42 13,40 15,99 8,90 13,63 75,69 0,00 (1h) 0,00 10,12 95,01 99,96 92,57 100,00 99,96 0,00 2524,70 82,62 7,83 26,34
08/05 - 23:00 gfs 13,05 13,03 15,99 8,47 13,37 80,27 0,19 (1h) 0,00 10,12 94,67 99,61 69,81 100,00 99,61 0,00 2448,85 44,45 3,09 6,74
09/05 - 00:00 gfs 12,89 12,89 15,99 8,11 12,66 82,25 0,14 (1h) 0,00 10,12 63,12 97,84 2,79 97,84 97,84 0,00 2467,10 39,94 4,88 7,74
09/05 - 01:00 gfs 12,41 12,40 12,83 7,84 13,00 85,09 0,13 (1h) 0,00 10,12 84,08 96,85 0,00 96,85 96,85 0,00 2454,18 65,77 5,76 10,15
09/05 - 02:00 gfs 12,15 12,07 12,85 7,27 13,02 92,78 1,05 (1h) 0,00 10,11 98,70 99,81 0,22 100,00 99,81 2,21 2464,87 76,63 3,85 11,03
09/05 - 03:00 gfs 12,36 12,01 12,87 8,05 14,57 93,95 0,69 (1h) 0,00 10,10 98,34 100,00 2,63 100,00 100,00 0,00 2477,03 33,47 7,81 10,73
09/05 - 04:00 gfs 12,24 11,98 12,87 8,15 14,71 94,70 0,15 (1h) 0,00 10,10 91,86 88,27 1,78 92,66 91,86 0,00 2439,57 87,36 6,99 14,46
09/05 - 05:00 gfs 12,00 11,85 12,87 7,89 13,35 95,46 0,02 (1h) 0,00 10,11 79,02 75,46 2,92 88,14 79,02 0,00 2460,29 114,92 8,57 20,76
09/05 - 06:00 gfs 12,59 11,85 12,96 7,97 12,80 93,50 0,00 (1h) 0,00 10,11 65,57 77,40 5,43 77,65 77,40 0,00 2454,24 112,99 7,62 21,94
09/05 - 07:00 gfs 14,10 12,73 14,08 8,09 12,57 88,00 0,04 (1h) 0,00 10,11 63,38 97,30 54,01 97,30 97,30 7,24 2468,69 130,95 8,40 17,85
09/05 - 08:00 gfs 15,46 12,74 15,46 8,27 12,17 82,71 0,04 (1h) 0,00 10,11 46,48 92,30 98,44 98,82 92,30 65,78 2473,49 142,78 10,28 18,19
09/05 - 09:00 gfs 17,00 12,74 17,00 8,12 12,16 75,21 0,00 (1h) 0,00 10,10 61,24 40,14 96,42 96,85 61,24 165,21 2467,67 150,98 11,90 19,14
09/05 - 10:00 gfs 18,66 12,74 18,64 7,92 13,32 65,62 0,00 (1h) 0,00 10,10 24,07 12,50 99,73 99,73 49,87 291,64 2511,99 156,28 13,70 19,88
09/05 - 11:00 gfs 20,26 12,72 20,26 7,13 14,67 56,64 0,02 (1h) 0,00 10,09 8,49 5,00 99,94 99,94 49,97 386,48 2562,03 160,29 14,68 20,62
09/05 - 12:00 gfs 20,75 12,71 20,87 6,91 15,48 53,01 0,35 (1h) 0,00 10,08 8,35 6,07 100,00 100,00 50,00 279,20 2589,14 160,39 16,13 24,73
09/05 - 15:00 gfs 21,89 20,76 21,94 8,12 17,00 44,54 0,09 (3h) 0,00 10,06 11,04 38,47 23,07 45,38 38,47 289,26 2610,43 154,67 14,95 20,34
09/05 - 18:00 gfs 16,87 16,89 21,98 7,71 15,01 76,15 0,54 (3h) 0,00 10,06 10,21 100,00 100,00 100,00 100,00 344,55 2579,96 165,00 13,90 28,25
09/05 - 21:00 gfs 14,00 13,96 16,82 6,88 12,92 88,55 0,80 (3h) 0,00 10,07 5,37 41,12 42,56 77,87 41,12 27,61 2595,65 211,62 10,64 29,08
10/05 - 00:00 gfs 12,41 12,34 16,82 6,58 11,30 86,12 0,02 (3h) 0,00 10,07 98,60 91,09 95,10 100,00 98,60 0,00 2260,25 183,30 8,41 24,25
10/05 - 03:00 gfs 11,42 11,41 12,60 6,01 10,25 92,04 0,00 (3h) 0,00 10,07 5,12 63,05 94,98 98,00 63,05 0,00 2251,68 177,48 12,32 35,34
10/05 - 06:00 gfs 11,81 10,96 12,60 5,25 10,22 87,00 0,00 (3h) 0,00 10,07 3,08 20,60 100,00 100,00 50,00 0,00 2257,10 166,91 13,15 32,17
10/05 - 09:00 gfs 16,11 11,85 16,11 6,32 11,01 66,01 0,00 (3h) 0,00 10,08 3,54 5,19 52,47 52,88 26,44 3,02 2387,57 197,74 17,99 28,43
10/05 - 12:00 gfs 19,93 11,85 20,09 5,90 14,44 49,93 0,06 (3h) 0,00 10,07 38,27 0,33 0,00 38,27 38,27 309,88 2392,84 218,14 20,90 30,93
10/05 - 15:00 gfs 19,15 18,93 20,41 6,36 14,64 57,13 0,44 (3h) 0,00 10,07 26,98 8,54 0,00 28,27 26,98 341,73 2393,17 209,57 17,77 26,56
10/05 - 18:00 gfs 16,39 16,36 20,38 7,00 13,68 78,80 1,47 (3h) 0,00 10,07 40,27 53,01 0,00 53,01 53,01 307,79 2441,63 195,39 11,65 23,18
10/05 - 21:00 gfs 13,55 13,55 16,30 7,09 12,52 92,88 0,81 (3h) 0,00 10,08 3,46 4,82 42,78 42,78 21,39 116,81 2521,57 198,02 8,62 22,61
11/05 - 00:00 gfs 12,46 12,45 16,29 6,89 12,70 94,15 0,00 (3h) 0,00 10,08 0,00 16,54 100,00 100,00 50,00 23,36 2478,34 174,83 5,62 7,14
11/05 - 03:00 gfs 11,76 11,72 12,45 6,73 12,14 94,83 0,00 (3h) 0,00 10,08 3,05 100,00 100,00 100,00 100,00 2,48 2400,51 144,95 6,13 9,50
11/05 - 06:00 gfs 12,77 11,70 12,82 7,27 12,64 90,52 0,00 (3h) 0,00 10,08 44,59 100,00 100,00 100,00 100,00 3,92 2318,48 124,42 5,68 12,41
11/05 - 09:00 gfs 16,87 12,87 16,84 7,69 12,50 69,31 0,00 (3h) 0,00 10,06 40,86 85,36 100,00 100,00 85,36 115,93 2420,02 67,48 8,05 11,38
11/05 - 12:00 gfs 19,69 12,88 19,87 7,01 14,53 58,96 0,40 (3h) 0,00 10,04 5,35 3,62 100,00 100,00 50,00 275,48 2590,49 79,94 15,70 21,41
11/05 - 15:00 gfs 19,03 18,45 20,76 8,70 15,67 70,30 1,00 (3h) 0,00 10,01 0,00 100,00 100,00 100,00 100,00 612,48 2804,17 80,45 10,57 17,91
11/05 - 18:00 gfs 18,34 18,07 20,74 8,94 16,50 71,66 0,39 (3h) 0,00 9,99 0,00 99,09 100,00 100,00 99,09 407,01 2789,93 74,83 13,53 28,30
11/05 - 21:00 gfs 15,54 15,54 18,21 10,09 16,83 83,38 0,20 (3h) 0,00 9,97 0,07 100,00 100,00 100,00 100,00 46,90 2698,18 35,74 12,55 40,43
12/05 - 00:00 gfs 14,57 14,54 18,24 11,36 14,51 87,02 1,08 (3h) 0,00 9,95 20,32 92,41 87,54 98,32 92,41 33,42 2631,63 40,18 13,70 44,27
12/05 - 03:00 gfs 13,49 13,46 14,55 9,43 13,36 87,96 0,16 (3h) 0,00 9,92 12,98 86,08 100,00 100,00 86,08 0,00 2841,05 31,30 14,49 43,56
12/05 - 06:00 gfs 13,34 13,05 14,49 8,03 11,39 91,97 0,59 (3h) 0,00 9,93 98,11 87,21 100,00 100,00 98,11 2,93 2768,32 59,55 12,68 28,08
12/05 - 09:00 gfs 13,64 13,16 14,11 6,32 10,97 90,60 0,71 (3h) 0,00 9,93 100,00 94,49 100,00 100,00 100,00 20,33 2632,78 110,47 8,89 17,55
12/05 - 12:00 gfs 13,16 12,73 14,29 6,54 10,32 89,47 1,27 (3h) 0,00 9,94 100,00 99,59 99,65 100,00 100,00 5,79 2619,46 110,04 8,77 14,25
12/05 - 15:00 gfs 12,74 12,24 13,46 6,79 10,84 93,62 4,52 (3h) 0,00 9,95 100,00 100,00 96,45 100,00 100,00 3,28 2641,35 62,43 3,76 9,09
12/05 - 18:00 gfs 12,61 12,19 13,59 6,49 10,68 96,65 2,08 (3h) 0,00 9,96 100,00 97,20 98,68 100,00 100,00 5,54 2798,49 162,35 2,77 8,05
12/05 - 21:00 gfs 11,86 11,79 12,70 7,29 9,90 97,05 0,72 (3h) 0,00 9,98 99,83 100,00 100,00 100,00 100,00 3,27 2835,15 191,17 9,25 17,52
13/05 - 00:00 gfs 11,64 11,46 12,70 8,11 10,42 97,74 0,43 (3h) 0,00 9,99 100,00 97,28 97,91 100,00 100,00 1,21 2712,97 227,41 10,24 21,05
13/05 - 03:00 gfs 12,94 11,60 13,16 7,77 11,10 96,66 0,73 (3h) 0,00 10,00 91,73 73,37 100,00 100,00 91,73 0,58 2762,79 337,17 14,75 38,21
13/05 - 06:00 gfs 11,50 11,11 13,17 7,90 9,16 93,37 0,07 (3h) 0,00 10,03 100,00 43,75 100,00 100,00 100,00 0,00 2759,41 336,00 18,46 37,36
13/05 - 09:00 gfs 12,74 11,18 12,74 8,28 8,74 83,55 0,00 (3h) 0,00 10,06 100,00 74,46 51,32 100,00 100,00 3,03 2786,90 334,87 19,17 35,59
13/05 - 12:00 gfs 16,17 11,19 16,15 6,67 11,80 67,91 0,00 (3h) 0,00 10,08 99,16 9,20 88,26 99,16 99,16 5,73 2750,43 335,65 19,92 32,66
13/05 - 15:00 gfs 17,96 16,33 18,65 4,26 12,70 52,76 0,01 (3h) 0,00 10,10 3,38 2,97 100,00 100,00 50,00 14,10 2735,88 325,13 24,12 32,45
13/05 - 18:00 gfs 15,24 15,22 18,65 4,52 10,85 74,00 0,06 (3h) 0,00 10,13 8,84 0,00 68,80 71,50 35,75 41,42 2513,71 313,02 20,07 33,28
13/05 - 21:00 gfs 12,76 12,73 15,15 3,65 8,46 77,89 0,04 (3h) 0,00 10,16 100,00 0,00 0,00 100,00 100,00 0,36 2321,11 298,87 18,79 37,11
14/05 - 00:00 gfs 12,06 11,99 15,14 3,22 7,73 75,85 0,04 (3h) 0,00 10,17 100,00 35,91 1,81 100,00 100,00 0,31 1854,82 299,30 17,75 36,27
14/05 - 03:00 gfs 9,81 9,79 12,07 1,32 6,54 74,93 0,00 (3h) 0,00 10,19 1,19 0,00 0,00 1,19 1,19 0,00 1916,88 297,15 15,85 34,90
14/05 - 06:00 gfs 9,33 8,30 12,07 0,49 5,41 74,81 0,00 (3h) 0,00 10,21 0,00 30,27 100,00 100,00 50,00 0,00 1758,64 291,53 14,65 32,93
14/05 - 09:00 gfs 13,46 9,47 13,47 -0,01 7,10 60,98 0,03 (3h) 0,00 10,22 70,70 24,27 37,69 77,43 70,70 34,25 1522,59 283,58 16,12 23,50
14/05 - 12:00 gfs 14,48 9,47 14,60 1,00 8,84 60,04 0,54 (3h) 0,00 10,21 84,42 0,00 1,64 84,42 84,42 61,80 1666,41 275,20 18,01 27,52
14/05 - 15:00 gfs 14,52 13,72 16,04 1,83 9,06 61,91 0,54 (3h) 0,00 10,21 90,38 4,47 4,07 90,38 90,38 64,14 1839,70 271,55 17,70 28,18
14/05 - 18:00 gfs 13,54 13,35 16,08 1,66 8,78 68,73 0,46 (3h) 0,00 10,21 5,37 4,82 24,07 24,56 12,28 62,23 1771,64 279,24 13,44 28,28
14/05 - 21:00 gfs 10,41 10,35 13,44 1,61 7,88 78,84 0,00 (3h) 0,00 10,21 0,38 55,53 5,00 55,53 55,53 0,41 1745,03 264,05 6,73 15,90
15/05 - 00:00 gfs 8,91 8,89 13,48 1,42 7,35 85,09 0,00 (3h) 0,00 10,20 0,00 5,00 5,18 5,18 5,00 0,00 1736,85 239,18 6,61 14,58
15/05 - 03:00 gfs 8,11 8,06 8,91 1,86 7,28 83,30 0,00 (3h) 0,00 10,19 5,00 100,00 100,00 100,00 100,00 0,00 1736,80 217,18 5,17 11,15
15/05 - 06:00 gfs 9,44 8,06 9,46 1,91 7,58 76,79 0,00 (3h) 0,00 10,17 84,34 100,00 100,00 100,00 100,00 0,00 1761,06 186,00 9,65 17,99
15/05 - 09:00 gfs 10,73 9,46 10,98 1,15 7,09 88,86 0,45 (3h) 0,00 10,14 100,00 97,25 100,00 100,00 100,00 35,91 1631,29 194,54 12,43 29,70
15/05 - 12:00 gfs 14,25 9,46 14,32 1,89 9,79 62,74 0,26 (3h) 0,00 10,11 91,62 100,00 81,98 100,00 100,00 19,40 1991,79 219,31 18,56 32,43
15/05 - 15:00 gfs 16,73 14,50 16,73 3,33 11,75 54,62 0,04 (3h) 0,00 10,08 59,41 100,00 99,07 100,00 100,00 38,14 2147,51 221,64 23,09 39,81
15/05 - 18:00 gfs 14,68 14,22 16,73 3,86 11,45 70,54 0,17 (3h) 0,00 10,07 93,99 100,00 100,00 100,00 100,00 61,47 1963,77 235,63 19,14 42,01
15/05 - 21:00 gfs 11,52 11,50 14,62 2,89 8,61 90,84 1,39 (3h) 0,00 10,07 100,00 100,00 100,00 100,00 100,00 36,98 1959,60 242,15 18,54 42,74
16/05 - 00:00 gfs 8,92 8,51 14,60 2,08 6,50 90,97 2,00 (3h) 0,00 10,08 100,00 100,00 99,70 100,00 100,00 0,58 1763,84 288,79 7,59 25,04
16/05 - 03:00 gfs 8,04 8,02 9,12 0,42 5,86 93,28 0,09 (3h) 0,00 10,08 35,58 33,28 5,00 36,09 35,58 3,36 1477,80 256,39 7,72 19,03
16/05 - 06:00 gfs 7,76 7,02 9,11 -0,18 5,49 86,79 0,00 (3h) 0,00 10,09 2,09 0,04 100,00 100,00 50,00 0,00 1366,96 270,35 8,86 16,35
16/05 - 09:00 gfs 11,86 7,88 11,86 -0,79 6,50 55,78 0,01 (3h) 0,00 10,08 5,00 59,85 100,00 100,00 59,85 9,04 1213,18 250,82 11,88 18,40
16/05 - 12:00 gfs 14,77 7,88 14,75 0,54 9,13 40,76 0,00 (3h) 0,00 10,07 5,00 100,00 99,83 100,00 100,00 20,51 1455,87 242,35 16,63 27,90
16/05 - 15:00 gfs 15,75 14,79 15,83 2,02 10,69 39,07 0,00 (3h) 0,00 10,05 68,18 96,55 6,70 96,55 96,55 34,02 1603,13 254,70 17,98 31,14
16/05 - 18:00 gfs 10,74 10,76 15,86 0,55 7,70 75,32 0,50 (3h) 0,00 10,05 53,43 100,00 7,84 100,00 100,00 63,60 1449,86 297,09 12,32 24,75
16/05 - 21:00 gfs 9,34 9,34 10,69 -0,86 6,46 77,95 0,41 (3h) 0,00 10,06 80,40 100,00 1,71 100,00 100,00 51,24 1282,06 285,61 10,23 22,51
17/05 - 00:00 gfs 7,78 7,78 10,70 -1,39 5,41 79,82 0,07 (3h) 0,00 10,07 28,85 80,77 0,00 80,77 80,77 14,58 1177,01 267,52 13,10 31,36
17/05 - 03:00 gfs 6,10 6,06 7,69 -0,84 4,59 80,88 0,01 (3h) 0,00 10,08 0,06 0,00 0,00 0,06 0,06 0,00 1259,87 255,61 13,28 37,92
17/05 - 06:00 gfs 7,03 5,60 7,79 -1,64 4,70 76,79 0,00 (3h) 0,00 10,10 4,98 0,56 0,00 4,98 4,98 0,00 1153,85 245,31 15,23 33,76
17/05 - 09:00 gfs 12,15 7,14 12,15 -1,52 6,58 56,36 0,10 (3h) 0,00 10,11 10,83 0,36 0,00 10,83 10,83 69,05 1240,18 252,58 20,73 31,22
17/05 - 12:00 gfs 13,57 7,14 13,78 0,16 8,49 54,43 0,60 (3h) 0,00 10,11 99,34 64,55 0,00 99,34 99,34 109,15 1443,60 258,36 22,75 32,89
17/05 - 15:00 gfs 13,70 13,04 14,70 0,93 9,03 62,80 0,99 (3h) 0,00 10,11 54,28 15,19 0,00 55,99 54,28 181,36 1539,27 267,27 20,17 31,73
17/05 - 18:00 gfs 11,66 11,65 14,70 0,90 8,15 77,27 1,20 (3h) 0,00 10,12 5,24 3,78 0,00 5,44 5,24 100,98 1560,74 283,12 15,00 30,67
17/05 - 21:00 gfs 8,90 8,90 11,59 0,69 7,33 83,10 0,05 (3h) 0,00 10,14 5,00 12,09 0,00 12,09 12,09 0,21 1541,33 268,20 9,98 30,39
18/05 - 00:00 gfs 7,83 7,88 11,54 0,36 6,89 88,38 0,00 (3h) 0,00 10,15 4,89 0,00 0,00 4,89 4,89 0,00 1499,45 262,25 11,38 33,47
18/05 - 03:00 gfs 6,92 6,92 7,81 0,48 6,70 90,27 0,00 (3h) 0,00 10,15 2,26 0,00 0,89 2,26 2,26 0,00 1522,75 264,10 10,25 31,69
18/05 - 06:00 gfs 8,40 6,56 8,40 0,54 6,19 80,45 0,00 (3h) 0,00 10,17 5,88 0,00 0,00 5,88 5,88 0,00 1538,96 263,42 12,23 28,33
18/05 - 09:00 gfs 13,32 8,52 13,31 0,69 7,37 61,65 0,00 (3h) 0,00 10,18 74,73 0,00 0,00 74,73 74,73 53,96 1583,26 274,51 14,34 19,99
18/05 - 12:00 gfs 14,41 8,52 14,42 1,15 8,55 59,00 0,32 (3h) 0,00 10,19 97,67 0,00 0,00 97,67 97,67 49,80 1720,91 285,19 15,59 21,15
18/05 - 15:00 gfs 15,31 14,37 15,42 1,70 9,67 57,07 0,23 (3h) 0,00 10,19 75,86 0,00 0,00 75,86 75,86 57,30 1885,74 299,31 14,95 19,96
18/05 - 18:00 gfs 14,14 13,99 15,52 2,49 9,76 69,10 0,43 (3h) 0,00 10,20 33,06 0,00 0,00 33,06 33,06 76,46 1942,08 312,63 11,31 19,92
18/05 - 21:00 gfs 10,83 10,85 14,04 2,20 9,22 82,97 0,08 (3h) 0,00 10,22 5,00 0,00 0,00 5,00 5,00 2,42 1873,99 289,85 5,17 5,21
19/05 - 00:00 gfs 9,51 9,48 14,06 2,08 8,81 86,79 0,00 (3h) 0,00 10,23 4,95 0,00 0,89 4,95 4,95 0,00 1868,97 273,95 5,27 6,94
19/05 - 03:00 gfs 8,39 8,41 9,48 1,83 8,33 88,35 0,00 (3h) 0,00 10,23 5,00 0,00 5,00 5,00 5,00 0,00 1822,42 265,47 5,36 8,12
19/05 - 06:00 gfs 10,15 8,11 10,15 1,86 8,00 82,08 0,00 (3h) 0,00 10,24 1,96 0,00 57,41 57,41 28,70 0,00 1871,60 246,79 7,38 14,27
19/05 - 09:00 gfs 14,44 10,24 14,44 2,32 8,21 58,94 0,00 (3h) 0,00 10,24 0,00 100,00 100,00 100,00 100,00 0,00 2037,12 254,99 10,73 15,62
19/05 - 12:00 gfs 17,47 10,24 17,51 2,39 10,83 48,25 0,02 (3h) 0,00 10,23 25,12 90,71 70,47 94,75 90,71 16,57 2159,47 261,17 10,30 12,88
19/05 - 15:00 gfs 18,26 17,30 18,72 3,86 12,23 47,58 0,04 (3h) 0,00 10,22 61,37 21,37 10,79 67,25 61,37 29,27 1987,55 282,57 11,60 14,23
19/05 - 18:00 gfs 16,63 16,59 18,76 3,62 12,03 56,97 0,00 (3h) 0,00 10,22 74,55 0,06 0,06 74,57 74,55 30,06 2139,35 304,09 7,30 13,01
19/05 - 21:00 gfs 14,36 14,32 16,52 3,57 11,95 65,52 0,04 (3h) 0,00 10,22 89,11 0,00 0,00 89,11 89,11 17,69 1959,93 220,35 5,54 13,58
20/05 - 00:00 gfs 12,25 12,12 16,52 3,29 11,37 74,00 0,00 (3h) 0,00 10,21 0,91 0,00 82,65 82,65 41,32 0,76 2433,73 222,65 6,94 16,61
20/05 - 03:00 gfs 10,27 10,27 12,12 3,56 10,91 78,37 0,00 (3h) 0,00 10,19 0,07 75,98 100,00 100,00 75,98 0,00 2656,60 204,46 8,77 23,52
20/05 - 06:00 gfs 11,48 10,09 12,18 3,76 9,83 77,14 0,00 (3h) 0,00 10,19 0,00 92,19 100,00 100,00 92,19 0,00 2585,54 206,07 14,04 37,95
20/05 - 09:00 gfs 14,23 11,54 14,24 4,52 8,95 67,16 0,00 (3h) 0,00 10,16 36,14 100,00 100,00 100,00 100,00 1,82 2531,46 216,94 20,52 39,93
20/05 - 12:00 gfs 14,86 11,53 15,14 3,10 9,27 58,69 0,05 (3h) 0,00 10,15 100,00 100,00 100,00 100,00 100,00 8,38 1937,58 221,82 24,79 45,16